timestamp,surface_pressure_avg,surface_temp_avg,battery_voltage,lat,long
2021-06-16 00:09:01+00:00,252.5264,10.2,13.44,47.84626,-54.09684
2021-06-16 00:19:01+00:00,257.4481,10.2,13.05,47.84626,-54.09684
2021-06-16 00:29:01+00:00,267.3264,10.2,13.05,47.84626,-54.09684
2021-06-16 00:39:01+00:00,277.2747,10.2,13.05,47.84626,-54.09684
2021-06-16 00:49:01+00:00,277.6647,10.22,13.05,47.84626,-54.09684
2021-06-16 00:59:01+00:00,280.0147,10.21,13.05,47.84626,-54.09684
2021-06-16 01:09:01+00:00,288.0464,10.2,13.05,47.84626,-54.09684
2021-06-16 01:19:01+00:00,295.7197,10.2,12.73,47.84626,-54.09684
2021-06-16 01:29:01+00:00,293.0063,10.2,12.73,47.84626,-54.09684
2021-06-16 01:39:01+00:00,297.2664,10.2,12.73,47.84626,-54.09684
2021-06-16 01:49:01+00:00,301.4797,10.2,12.73,47.84626,-54.09684
2021-06-16 01:59:01+00:00,305.8831,10.2,12.73,47.84626,-54.09684
2021-06-16 02:09:01+00:00,302.9498,10.2,12.73,47.84626,-54.09684
2021-06-16 02:19:00+00:00,309.7563,10.2,12.65,47.84626,-54.09684
2021-06-16 02:29:00+00:00,320.4813,10.2,12.65,47.84626,-54.09684
2021-06-16 02:39:00+00:00,330.1229,10.2,12.65,47.84626,-54.09684
2021-06-16 02:49:00+00:00,332.6712,10.2,12.65,47.84626,-54.09684
2021-06-16 02:59:00+00:00,333.2529,10.2,12.65,47.84626,-54.09684
2021-06-16 03:09:00+00:00,337.9079,10.2,12.65,47.84626,-54.09684
2021-06-16 03:19:00+00:00,336.9596,10.2,12.65,47.84626,-54.09684
2021-06-16 03:29:00+00:00,330.2612,10.2,12.65,47.84626,-54.09684
2021-06-16 03:39:00+00:00,330.1713,10.2,12.65,47.84626,-54.09684
2021-06-16 03:49:00+00:00,336.463,10.2,12.65,47.84626,-54.09684
2021-06-16 03:59:00+00:00,338.5847,10.2,12.65,47.84626,-54.09684
2021-06-16 04:09:00+00:00,327.5146,10.2,12.65,47.84626,-54.09684
2021-06-16 04:19:01+00:00,321.7747,10.2,12.65,47.84626,-54.09684
2021-06-16 04:29:01+00:00,327.8113,10.2,12.65,47.84626,-54.09684
2021-06-16 04:39:01+00:00,334.1613,10.2,12.65,47.84626,-54.09684
2021-06-16 04:49:01+00:00,330.73800000000006,10.2,12.65,47.84626,-54.09684
2021-06-16 04:59:01+00:00,321.5496,10.2,12.65,47.84626,-54.09684
2021-06-16 05:09:01+00:00,319.7463,10.2,12.65,47.84626,-54.09684
2021-06-16 05:19:00+00:00,315.6997,10.2,12.65,47.84626,-54.09684
2021-06-16 05:29:00+00:00,305.138,10.2,12.65,47.84626,-54.09684
2021-06-16 05:39:00+00:00,298.5847,10.2,12.65,47.84626,-54.09684
2021-06-16 05:49:00+00:00,297.9414,10.2,12.65,47.84626,-54.09684
2021-06-16 05:59:00+00:00,295.873,10.18,12.65,47.84626,-54.09684
2021-06-16 06:09:00+00:00,286.488,10.17,12.65,47.84626,-54.09684
2021-06-16 06:19:01+00:00,278.6881,10.17,12.65,47.84626,-54.09684
2021-06-16 06:29:01+00:00,276.4781,10.15,12.65,47.84626,-54.09684
2021-06-16 06:39:01+00:00,270.7431,10.15,12.65,47.84626,-54.09684
2021-06-16 06:49:01+00:00,257.7814,10.16,12.65,47.84626,-54.09684
2021-06-16 06:59:01+00:00,251.5165,10.16,12.65,47.84626,-54.09684
2021-06-16 07:09:01+00:00,250.5898,10.16,12.65,47.84626,-54.09684
2021-06-16 07:19:00+00:00,239.4297,10.13,12.65,47.84626,-54.09684
2021-06-16 07:29:00+00:00,226.2098,10.17,12.65,47.84626,-54.09684
2021-06-16 07:39:00+00:00,223.6314,10.2,12.65,47.84626,-54.09684
2021-06-16 07:49:00+00:00,218.7631,10.2,12.65,47.84626,-54.09684
2021-06-16 07:59:00+00:00,213.0448,10.2,12.65,47.84626,-54.09684
2021-06-16 08:09:00+00:00,209.4247,10.26,12.65,47.84626,-54.09684
2021-06-16 08:19:01+00:00,202.4598,10.29,12.57,47.84626,-54.09684
2021-06-16 08:29:01+00:00,193.4648,10.3,12.57,47.84626,-54.09684
2021-06-16 08:39:01+00:00,189.0515,10.3,12.57,47.84626,-54.09684
2021-06-16 08:49:01+00:00,195.7231,10.3,12.57,47.84626,-54.09684
2021-06-16 08:59:01+00:00,200.4549,10.3,12.57,47.84626,-54.09684
2021-06-16 09:09:01+00:00,198.0348,10.3,12.57,47.84626,-54.09684
2021-06-16 09:19:00+00:00,198.6498,10.3,12.73,47.84626,-54.09684
2021-06-16 09:29:00+00:00,200.0098,10.3,12.73,47.84626,-54.09684
2021-06-16 09:39:00+00:00,202.9114,10.31,12.73,47.84626,-54.09684
2021-06-16 09:49:00+00:00,200.1948,10.35,12.73,47.84626,-54.09684
2021-06-16 09:59:00+00:00,199.9331,10.39,12.73,47.84626,-54.09684
2021-06-16 10:09:00+00:00,207.8581,10.4,12.73,47.84626,-54.09684
2021-06-16 10:19:01+00:00,211.9598,10.4,13.29,47.84626,-54.09684
2021-06-16 10:29:01+00:00,214.2498,10.5,13.29,47.84626,-54.09684
2021-06-16 10:39:01+00:00,214.5265,10.59,13.29,47.84626,-54.09684
2021-06-16 10:49:01+00:00,217.2581,10.58,13.29,47.84626,-54.09684
2021-06-16 10:59:01+00:00,220.2665,10.55,13.29,47.84626,-54.09684
2021-06-16 11:09:01+00:00,222.188,10.59,13.29,47.84626,-54.09684
2021-06-16 11:19:01+00:00,225.5264,10.6,13.53,47.84626,-54.09684
2021-06-16 11:29:01+00:00,225.4932,10.56,13.53,47.84626,-54.09684
2021-06-16 11:39:01+00:00,225.3347,10.59,13.53,47.84626,-54.09684
2021-06-16 11:49:01+00:00,228.0914,10.52,13.53,47.84626,-54.09684
2021-06-16 11:59:01+00:00,228.5664,10.5,13.53,47.84626,-54.09684
2021-06-16 12:09:01+00:00,236.4264,10.5,13.53,47.84626,-54.09684
2021-06-16 12:19:00+00:00,242.8564,10.5,13.44,47.84626,-54.09684
2021-06-16 12:29:00+00:00,242.6881,10.5,13.44,47.84626,-54.09684
2021-06-16 12:39:00+00:00,246.2247,10.5,13.44,47.84626,-54.09684
2021-06-16 12:49:00+00:00,252.5614,10.5,13.44,47.84626,-54.09684
2021-06-16 12:59:00+00:00,257.4897,10.49,13.44,47.84626,-54.09684
2021-06-16 13:09:00+00:00,259.0914,10.49,13.44,47.84626,-54.09684
2021-06-16 13:19:01+00:00,268.2631,10.5,13.37,47.84626,-54.09684
2021-06-16 13:29:01+00:00,279.6381,10.44,13.37,47.84626,-54.09684
2021-06-16 13:39:01+00:00,282.6031,10.45,13.37,47.84626,-54.09684
2021-06-16 13:49:01+00:00,283.5613,10.46,13.37,47.84626,-54.09684
2021-06-16 13:59:01+00:00,294.2513,10.46,13.37,47.84626,-54.09684
2021-06-16 14:09:01+00:00,307.5096,10.45,13.37,47.84626,-54.09684
2021-06-16 14:19:01+00:00,305.6113,10.49,13.6,47.84626,-54.09684
2021-06-16 14:29:01+00:00,303.3147,10.5,13.6,47.84626,-54.09684
2021-06-16 14:39:01+00:00,309.3347,10.5,13.6,47.84626,-54.09684
2021-06-16 14:49:01+00:00,310.9581,10.5,13.6,47.84626,-54.09684
2021-06-16 14:59:01+00:00,304.5464,10.5,13.6,47.84626,-54.09684
2021-06-16 15:09:01+00:00,308.743,10.5,13.6,47.84626,-54.09684
2021-06-16 15:19:01+00:00,318.2629,10.5,13.76,47.84626,-54.09684
2021-06-16 15:29:01+00:00,316.1379,10.5,13.76,47.84626,-54.09684
2021-06-16 15:39:01+00:00,306.7797,10.5,13.76,47.84626,-54.09684
2021-06-16 15:49:01+00:00,314.9197,10.5,13.76,47.84626,-54.09684
2021-06-16 15:59:01+00:00,323.1763,10.5,13.76,47.84626,-54.09684
2021-06-16 16:09:01+00:00,320.1696,10.5,13.76,47.84626,-54.09684
2021-06-16 16:19:00+00:00,315.2164,10.5,13.84,47.84626,-54.09684
2021-06-16 16:29:00+00:00,315.8281,10.49,13.84,47.84626,-54.09684
2021-06-16 16:39:00+00:00,309.9096,10.5,13.84,47.84626,-54.09684
2021-06-16 16:49:00+00:00,302.3447,10.5,13.84,47.84626,-54.09684
2021-06-16 16:59:00+00:00,309.33299999999997,10.49,13.84,47.84626,-54.09684
2021-06-16 17:09:00+00:00,308.9813,10.5,13.84,47.84626,-54.09684
2021-06-16 17:19:00+00:00,301.1981,10.5,14.0,47.84626,-54.09684
2021-06-16 17:29:00+00:00,299.973,10.5,14.0,47.84626,-54.09684
2021-06-16 17:39:00+00:00,299.108,10.5,14.0,47.84626,-54.09684
2021-06-16 17:49:00+00:00,291.1964,10.57,14.0,47.84626,-54.09684
2021-06-16 17:59:00+00:00,283.7947,10.6,14.0,47.84626,-54.09684
2021-06-16 18:09:00+00:00,281.3831,10.59,14.0,47.84626,-54.09684
2021-06-16 18:19:01+00:00,277.2314,10.52,14.08,47.84626,-54.09684
2021-06-16 18:29:01+00:00,265.1531,10.59,14.08,47.84626,-54.09684
2021-06-16 18:39:01+00:00,256.8864,10.6,14.08,47.84626,-54.09684
2021-06-16 18:49:01+00:00,253.3014,10.6,14.08,47.84626,-54.09684
2021-06-16 18:59:01+00:00,252.2331,10.5,14.08,47.84626,-54.09684
2021-06-16 19:09:01+00:00,246.9531,10.5,14.08,47.84626,-54.09684
2021-06-16 19:19:01+00:00,245.5898,10.5,14.16,47.84626,-54.09684
2021-06-16 19:29:01+00:00,243.9664,10.5,14.16,47.84626,-54.09684
2021-06-16 19:39:01+00:00,230.9514,10.59,14.16,47.84626,-54.09684
2021-06-16 19:49:01+00:00,222.7464,10.7,14.16,47.84626,-54.09684
2021-06-16 19:59:01+00:00,224.2048,10.7,14.16,47.84626,-54.09684
2021-06-16 20:09:01+00:00,217.4964,10.7,14.16,47.84626,-54.09684
2021-06-16 20:19:01+00:00,207.8081,10.7,13.92,47.84626,-54.09684
2021-06-16 20:29:01+00:00,207.3831,10.72,13.92,47.84626,-54.09684
2021-06-16 20:39:01+00:00,206.8148,10.73,13.92,47.84626,-54.09684
2021-06-16 20:49:01+00:00,202.3647,10.77,13.92,47.84626,-54.09684
2021-06-16 20:59:01+00:00,203.0814,10.8,13.92,47.84626,-54.09684
2021-06-16 21:09:01+00:00,202.6648,10.8,13.92,47.84626,-54.09684
2021-06-16 21:19:01+00:00,198.3048,10.8,13.6,47.84626,-54.09684
2021-06-16 21:29:01+00:00,196.8032,10.8,13.6,47.84626,-54.09684
2021-06-16 21:39:01+00:00,198.5898,10.8,13.6,47.84626,-54.09684
2021-06-16 21:49:01+00:00,202.0681,10.8,13.6,47.84626,-54.09684
2021-06-16 21:59:01+00:00,208.6881,10.77,13.6,47.84626,-54.09684
2021-06-16 22:09:01+00:00,211.5414,10.7,13.6,47.84626,-54.09684
2021-06-16 22:19:01+00:00,213.6631,10.7,13.44,47.84626,-54.09684
2021-06-16 22:29:01+00:00,216.4331,10.7,13.44,47.84626,-54.09684
2021-06-16 22:39:01+00:00,218.8898,10.6,13.44,47.84626,-54.09684
2021-06-16 22:49:01+00:00,219.9131,10.6,13.44,47.84626,-54.09684
2021-06-16 22:59:01+00:00,221.9015,10.6,13.44,47.84626,-54.09684
2021-06-16 23:09:01+00:00,222.1531,10.6,13.44,47.84626,-54.09684
2021-06-16 23:19:01+00:00,225.1215,10.6,13.13,47.84626,-54.09684
2021-06-16 23:29:01+00:00,234.3131,10.54,13.13,47.84626,-54.09684
2021-06-16 23:39:01+00:00,232.3114,10.51,13.13,47.84626,-54.09684
2021-06-16 23:49:01+00:00,224.0015,10.6,13.13,47.84626,-54.09684
2021-06-16 23:59:01+00:00,228.9814,10.64,13.13,47.84626,-54.09684
